EW4052 Weather Reports


time (UTC)temp
C
wind
direction
speed
KPH
gust
KPH
rain 1hr
cm
rain 24hr
cm
rain mn
cm
humidity
%
barometer
mb
20260831203039 28 251 4.8 14.5 0.00 0.00 0.00 67 1009.6
20260831201538 29 250 8.0 14.5 0.00 0.00 0.00 69 1009.7
20260831200039 28 250 8.0 14.5 0.00 0.00 0.00 68 1009.7
20260831194526 28 241 3.2 12.9 0.00 0.00 0.00 67 1009.7
20260831193020 28 228 8.0 16.1 0.00 0.00 0.00 66 1009.8
20260831191520 27 248 6.4 12.9 0.00 0.00 0.00 63 1009.7
20260831190014 27 260 3.2 8.0 0.00 0.00 0.00 60 1009.5
20260831184516 27 276 0.0 8.0 0.00 0.05 0.00 51 1009.4
20260831183002 27 306 0.0 0.0 0.00 0.05 0.00 49 1009.4
20260831181557 27 17 0.0 0.0 0.00 0.05 0.00 54 1008.7
20260831180053 27 17 0.0 0.0 0.00 0.05 0.00 52 1008.8
20260831174549 26 17 0.0 0.0 0.00 0.05 0.00 50 1008.5
20260831173044 26 17 0.0 8.0 0.00 0.05 0.00 63 1008.4
20260831171542 26 247 0.0 9.7 0.00 0.05 0.00 58 1009.1
20260831170035 26 240 0.0 8.0 0.00 0.05 0.00 53 1009.6
20260831164531 26 237 0.0 12.9 0.00 0.05 0.00 57 1009.8
20260831163038 27 236 6.4 14.5 0.00 0.05 0.00 60 1009.7
20260831161522 27 243 9.7 14.5 0.00 0.05 0.00 64 1009.7
20260831160033 27 233 8.0 16.1 0.00 0.05 0.00 60 1009.5
20260831154513 26 237 11.3 16.1 0.00 0.86 0.00 58 1009.4
20260831153008 26 234 6.4 14.5 0.00 0.86 0.00 60 1009.4
20260831151511 26 232 9.7 20.9 0.00 0.86 0.00 58 1009.2
20260831150100 26 219 0.0 0.0 0.00 0.86 0.00 55 1009.3
20260831144554 25 225 0.0 0.0 0.00 1.07 0.00 43 1009.1
20260831143059 25 228 0.0 0.0 0.00 1.07 0.00 27 1009.1
20260831141546 24 239 0.0 0.0 0.00 1.07 0.00 5 1009.0
20260831140042 23 200 0.0 0.0 0.00 1.07 0.00 100 1008.9
20260831134538 22 204 0.0 0.0 0.00 1.07 0.00 100 1008.8
20260831133035 21 196 0.0 0.0 0.00 1.07 0.00 100 1008.4
20260831131538 21 184 0.0 0.0 0.00 1.07 0.00 100 1008.2
20260831130034 20 148 0.0 0.0 0.00 1.07 0.00 100 1008.1
20260831124522 -17 128 0.0 0.0 0.00 1.07 0.00 1007.8
20260831123021 -17 147 0.0 0.0 0.00 1.07 0.00 1007.7
20260831121521 -17 173 0.0 0.0 0.00 1.07 0.00 1007.6
20260831120029 -17 142 0.0 0.0 0.00 1.07 0.00 1007.4
20260831114520 -17 95 0.0 0.0 0.00 1.07 0.00 1007.3
20260831113020 -17 150 0.0 0.0 0.00 1.07 0.00 1007.1
20260831111520 -17 187 0.0 0.0 0.00 1.07 0.00 1007.2
20260831110019 -17 205 0.0 0.0 0.00 1.07 0.00 1007.3
20260831104518 -17 211 0.0 0.0 0.00 1.07 0.00 1007.1
20260831103014 20 134 0.0 0.0 0.00 1.07 0.00 100 1007.2
20260831101510 20 147 0.0 0.0 0.00 1.07 0.00 100 1007.2
20260831100006 20 225 0.0 0.0 0.00 1.07 0.00 100 1007.3
20260831094606 20 181 0.0 0.0 0.00 1.07 0.00 100 1007.3
20260831093055 20 175 0.0 0.0 0.00 1.07 0.00 100 1007.4
20260831091551 20 36 0.0 0.0 0.00 1.07 0.00 100 1007.4
20260831090053 20 105 0.0 0.0 0.00 1.07 0.00 100 1007.4
20260831084543 20 59 0.0 0.0 0.00 1.07 0.00 100 1007.5
20260831083038 20 60 0.0 0.0 0.00 1.07 0.00 100 1007.2
20260831081534 20 60 0.0 0.0 0.00 1.07 0.00 100 1007.1
20260831080036 20 60 0.0 0.0 0.00 1.07 0.00 100 1007.3
20260831074525 20 60 0.0 0.0 0.00 1.07 0.00 100 1007.2
20260831073021 20 60 0.0 0.0 0.00 1.07 0.00 100 1007.2
20260831071516 20 60 0.0 0.0 0.00 1.07 0.00 100 1007.3
20260831070016 20 61 0.0 0.0 0.00 1.07 0.00 100 1007.3
20260831064507 20 61 0.0 0.0 0.00 1.07 0.00 100 1007.4
20260831063006 20 61 0.0 0.0 0.00 1.07 0.00 100 1007.6
20260831061605 20 61 0.0 0.0 0.00 1.07 0.00 100 1007.7
20260831060055 20 61 0.0 0.0 0.00 1.07 0.00 100 1007.8
20260831054549 20 61 0.0 0.0 0.00 1.07 0.00 100 1007.8
20260831053046 20 61 0.0 0.0 0.00 1.07 0.00 100 1007.9
20260831051552 20 61 0.0 0.0 0.00 1.07 0.00 100 1007.9
20260831050037 20 61 0.0 0.0 0.00 1.07 0.00 100 1007.9
20260831044534 20 61 0.0 0.0 0.00 1.07 1.07 100 1007.9
20260831043028 20 61 0.0 0.0 0.00 1.07 1.07 100 1007.9
20260831041525 21 61 0.0 0.0 0.00 1.07 1.07 100 1007.7
20260831040019 21 61 0.0 0.0 0.00 1.07 1.07 100 1007.7
20260831034515 21 67 0.0 0.0 0.00 1.07 1.07 100 1007.7
20260831033010 21 67 0.0 0.0 0.00 1.07 1.07 100 1008.0
20260831031506 21 68 0.0 0.0 0.00 1.07 1.07 100 1008.1
20260831030001 21 73 0.0 0.0 0.00 1.07 1.07 100 1008.1
20260831024659 21 90 0.0 0.0 0.00 1.07 1.07 100 1008.2
20260831023052 21 109 0.0 0.0 0.00 1.07 1.07 100 1008.1
20260831021548 21 108 0.0 0.0 0.00 1.07 1.07 100 1008.3
20260831020051 21 355 0.0 0.0 0.00 1.07 1.07 100 1008.3
20260831014544 21 355 0.0 0.0 0.00 1.07 1.07 100 1008.3
20260831013053 22 36 0.0 0.0 0.00 1.07 1.07 100 1008.1
20260831011546 22 140 0.0 0.0 0.00 1.07 1.07 100 1008.0
20260831010050 22 320 0.0 0.0 0.00 1.07 1.07 100 1007.8
20260831004543 22 360 0.0 0.0 0.00 1.07 1.07 100 1007.9
20260831003041 22 355 0.0 0.0 0.00 1.07 1.07 100 1008.0
20260831001536 23 201 0.0 0.0 0.00 1.07 1.07 100 1007.7
20260831000033 23 235 0.0 0.0 0.00 1.07 1.07 100 1007.7
20260830234536 23 134 0.0 0.0 0.00 1.07 1.07 100 1007.8
20260830233023 23 267 0.0 0.0 0.00 1.07 1.07 3 1007.7
20260830231519 24 242 0.0 0.0 0.00 1.07 1.07 23 1007.7
20260830230014 24 118 0.0 0.0 0.00 1.07 1.07 38 1007.3
20260830224509 25 261 0.0 0.0 0.00 1.07 1.07 47 1007.3
20260830223005 25 286 0.0 0.0 0.00 1.07 1.07 49 1007.2
20260830221500 24 273 0.0 0.0 0.00 1.07 1.07 47 1007.1
20260830220058 25 355 0.0 0.0 0.00 1.07 1.07 54 1007.2
20260830214610 25 28 0.0 0.0 0.00 1.07 1.07 56 1007.2
20260830213047 25 254 0.0 0.0 0.00 1.07 1.07 63 1007.2
20260830211543 25 87 0.0 0.0 0.00 1.07 1.07 59 1007.4
20260830210039 26 246 0.0 0.0 0.00 1.07 1.07 60 1007.3
20260830204535 26 217 0.0 0.0 0.00 1.07 1.07 56 1007.1